Theta_e
332 330 328 326 329 331 332 332 330 329 328 328 325 321 319 317 319 331 337 339 341 335 337 342 340 341 343 346 350 348 349 349 346 346 344 344 344 346 346 345 348 349 351 351 350 354 357 357 356 355 357 359 360 358 357 354 352 354 354 351 350 350 352 354 354 354 355 355 354 354 354 354 354 355 356 358 358 357 357 356 356 357 357 356 355 356
333 328 327 331 331 332 332 332 330 330 329 329 324 320 319 318 321 330 335 336 338 332 333 341 340 340 344 347 350 349 349 347 345 346 345 344 345 348 348 348 350 350 350 353 354 357 359 359 358 357 357 358 360 360 360 360 357 357 358 355 353 351 349 351 355 356 354 354 354 353 354 354 353 353 353 355 357 357 357 356 357 357 357 355 355 355
331 328 330 334 332 331 332 331 330 330 330 327 325 320 316 319 324 330 336 336 335 332 335 341 337 337 345 347 347 348 347 347 347 347 344 344 347 347 348 348 349 351 352 354 356 358 359 361 359 358 358 355 357 358 358 361 361 361 362 360 360 357 352 351 355 357 357 356 357 355 354 355 353 351 350 353 356 357 357 357 358 358 357 356 355 355
322 328 334 333 331 332 330 329 330 329 329 327 325 318 314 321 320 319 331 339 335 332 338 342 334 337 346 346 348 348 349 352 352 349 345 345 348 347 346 347 347 351 352 352 356 359 359 360 360 358 358 355 355 356 356 358 359 360 361 360 361 360 358 356 356 357 357 356 356 355 354 355 352 349 351 354 356 356 356 357 357 357 356 357 356 356
326 331 334 332 331 332 329 329 331 326 323 326 327 320 317 322 320 319 329 335 334 330 338 338 324 331 345 343 351 355 352 355 353 353 353 350 350 348 345 346 347 349 350 351 355 357 357 358 358 357 357 357 355 357 357 357 358 358 359 359 360 359 358 358 358 358 358 357 355 353 353 353 352 353 355 356 357 356 356 357 357 356 356 357 357 356
331 333 333 333 332 331 329 329 330 325 319 319 326 326 323 325 324 324 327 324 319 318 332 333 314 321 344 343 350 356 353 354 353 358 361 356 352 348 346 346 348 351 350 351 353 354 356 356 356 357 356 357 357 357 358 358 359 359 359 359 359 359 358 357 358 358 357 358 357 356 356 356 356 356 357 356 355 356 357 358 358 357 357 356 356 356
332 333 333 332 332 332 330 328 330 329 318 313 322 329 328 329 325 323 324 318 311 312 328 333 315 317 335 341 348 353 352 355 355 359 362 359 354 348 348 348 349 354 353 351 353 354 354 353 355 357 356 357 357 358 358 358 358 358 358 359 357 357 357 357 357 357 357 358 358 358 357 357 357 357 357 356 356 355 356 358 358 358 357 356 356 356
332 332 332 333 332 331 327 325 330 331 319 315 325 329 327 327 325 324 322 317 315 317 324 329 321 318 324 334 345 351 352 357 355 355 358 356 353 346 348 350 350 354 355 354 355 355 355 354 356 356 357 358 358 359 359 358 358 358 357 357 357 357 357 357 357 357 357 357 358 357 357 358 357 357 357 356 356 357 356 357 357 357 356 356 356 356
333 332 331 334 331 328 327 327 330 330 323 323 328 328 327 326 326 327 324 318 320 319 314 319 322 319 321 334 346 353 354 356 355 354 355 353 351 349 349 349 352 354 355 355 355 355 356 356 356 355 356 357 358 359 359 358 358 358 357 356 356 357 357 357 357 357 356 357 357 357 357 357 357 356 356 356 356 356 355 355 355 356 356 355 355 355
333 332 332 333 331 328 329 330 331 329 327 328 329 328 327 327 327 328 325 319 319 318 311 315 318 316 320 332 340 344 348 353 356 354 354 352 351 356 352 348 353 353 352 354 355 356 357 356 355 354 356 357 358 359 358 358 357 357 357 357 357 357 357 357 356 357 357 356 356 356 356 357 356 356 356 356 356 355 355 356 356 356 356 356 355 355
331 332 331 331 332 330 330 331 331 330 329 328 327 327 325 326 328 327 325 320 315 314 313 315 317 314 320 332 338 339 344 352 357 354 352 352 349 352 350 348 352 352 349 350 355 357 356 357 357 357 358 357 357 358 357 357 357 356 357 357 357 356 355 354 353 354 354 354 354 354 354 354 354 354 355 355 355 355 356 356 357 356 356 356 355 355
329 329 331 331 330 330 330 329 331 330 328 327 327 325 318 317 321 318 317 318 314 312 313 316 319 314 317 331 341 343 347 350 355 355 353 353 350 349 349 347 350 351 350 351 356 358 357 357 358 358 358 357 356 355 355 356 355 355 354 354 354 353 352 351 350 350 351 350 351 350 350 350 349 350 350 350 350 351 354 355 355 356 356 356 356 355
327 329 331 331 331 331 329 327 327 329 328 328 325 318 311 309 312 311 311 312 311 311 314 317 320 315 317 332 340 343 346 344 350 353 352 352 351 350 350 348 349 351 351 352 354 355 355 356 357 357 357 356 355 354 353 353 352 351 350 350 350 350 350 350 349 348 349 349 348 346 346 346 345 344 344 345 345 347 350 350 350 352 353 353 354 355
320 326 330 330 329 330 329 323 318 321 326 326 320 314 310 308 309 310 310 310 311 311 314 319 320 315 319 333 340 342 341 343 348 348 349 351 351 352 349 347 350 351 351 352 353 350 351 355 356 356 356 354 353 351 350 349 347 347 347 347 348 349 349 349 348 347 347 348 347 346 345 344 343 342 343 343 344 346 347 347 347 347 347 347 350 352
311 316 324 327 327 329 330 326 322 323 325 326 327 321 313 310 310 310 309 309 311 311 313 318 319 316 320 334 343 341 338 343 345 345 349 351 352 352 348 348 351 350 350 351 350 349 351 354 354 355 354 352 350 347 345 345 344 345 346 346 347 347 347 347 347 347 347 346 346 346 345 344 344 344 344 344 345 345 345 345 345 345 344 343 346 347
310 312 324 329 328 329 329 329 330 327 322 325 330 322 313 315 315 311 310 311 311 311 313 315 321 327 334 343 345 340 342 346 345 347 352 351 351 350 347 348 350 350 351 350 349 352 352 352 353 352 351 349 346 343 342 343 344 344 345 346 345 345 344 345 345 345 344 343 343 343 342 343 344 344 345 345 345 345 344 344 344 344 343 343 344 344
310 313 327 330 327 331 330 329 331 326 319 322 321 316 319 327 322 311 309 313 311 312 314 313 319 330 340 347 347 345 351 353 350 350 352 354 354 352 350 351 351 352 350 349 350 351 349 349 349 347 345 345 343 342 342 342 342 343 343 343 343 342 342 342 343 342 342 341 341 341 340 341 342 343 343 343 343 344 343 343 344 344 343 344 343 343
317 313 326 331 326 329 331 329 332 329 325 322 315 318 325 327 326 317 310 312 311 312 314 311 319 331 337 341 347 348 354 353 353 354 352 353 351 349 350 350 350 351 349 349 350 349 347 345 344 342 341 341 340 341 342 341 341 341 341 342 342 341 341 340 340 340 339 340 340 340 340 340 341 341 341 341 342 342 342 342 343 342 343 344 344 343
325 313 320 332 328 329 333 328 326 328 330 326 320 326 325 315 315 315 311 312 312 313 314 311 324 339 339 341 346 348 354 353 352 353 352 352 351 350 349 348 350 351 350 352 351 348 346 341 340 340 339 340 341 341 341 341 341 342 342 342 342 341 340 339 340 339 339 339 340 341 340 339 339 340 340 341 341 342 342 342 342 342 342 342 343 343
330 315 313 329 331 329 332 325 318 319 326 328 326 330 327 317 316 314 313 314 311 313 313 311 327 342 343 348 351 350 354 352 350 353 353 354 354 352 352 351 353 354 354 356 352 344 341 339 339 340 339 341 341 341 342 342 341 342 341 341 341 340 340 340 340 339 338 339 339 339 339 338 339 340 340 341 342 342 342 342 342 342 342 342 342 343
330 321 312 323 331 325 322 323 321 320 323 323 320 321 321 321 321 318 317 315 311 314 312 314 332 343 346 355 357 352 354 351 350 354 353 353 353 352 353 352 353 355 356 357 352 339 340 340 339 340 340 342 341 341 342 341 341 341 340 341 340 340 341 339 340 339 338 338 339 339 338 338 339 339 340 341 341 342 342 342 342 342 341 341 342 342
327 322 314 315 320 317 319 328 330 328 329 326 321 320 319 319 318 315 317 316 313 315 311 315 336 346 350 356 357 354 355 351 352 354 352 352 352 351 352 350 349 352 353 354 348 341 343 342 341 342 341 342 342 343 342 341 342 341 340 341 340 340 339 338 338 338 337 338 338 339 338 338 339 339 340 341 340 341 342 341 342 342 341 341 341 341
328 325 316 312 317 321 327 333 331 329 332 330 326 327 326 323 318 312 313 315 313 315 313 316 333 348 354 355 356 355 354 352 352 354 352 352 351 351 351 349 349 353 354 351 348 348 347 344 344 345 344 344 344 343 343 342 342 341 341 341 339 338 337 337 337 337 336 337 338 338 338 338 338 339 339 339 339 340 341 340 341 341 341 340 340 340
329 325 316 312 319 326 330 332 332 332 331 328 326 329 329 327 325 321 320 320 315 314 316 321 333 346 352 355 356 354 354 352 352 353 352 351 351 351 350 350 351 355 357 352 349 350 348 346 347 345 345 347 346 344 344 342 342 342 341 340 338 338 337 336 337 337 336 337 337 337 337 337 338 338 338 338 338 339 340 340 341 340 339 340 340 340
322 322 317 312 313 316 319 322 327 329 328 328 328 330 332 330 332 330 326 324 318 315 319 325 331 341 350 356 356 352 353 353 351 352 351 351 351 350 351 351 351 354 353 350 349 349 347 347 348 345 345 347 347 346 345 343 342 342 341 339 337 337 337 336 336 337 337 337 336 336 336 337 336 337 337 337 338 339 339 340 340 339 339 339 339 340
321 324 320 312 309 311 313 314 319 322 326 329 329 329 332 331 332 328 320 319 319 322 329 329 330 341 353 356 353 353 354 352 352 351 350 352 351 350 351 350 351 351 349 347 348 347 347 347 347 348 346 346 347 347 345 343 342 341 339 338 337 336 336 336 336 337 337 336 336 336 336 337 336 336 337 337 338 338 338 339 339 339 339 339 339 339
327 327 324 318 313 314 316 320 328 328 323 321 324 327 330 332 335 329 320 319 321 326 332 335 335 339 346 351 353 353 353 351 351 351 350 350 350 349 350 348 349 350 347 347 346 345 347 347 347 348 346 344 346 346 342 340 340 339 338 337 336 336 336 337 337 337 337 336 336 336 336 337 337 337 337 337 338 338 338 338 337 338 338 338 338 339
329 320 323 325 320 322 326 327 331 331 323 321 323 325 329 333 334 328 321 325 329 327 330 341 342 338 342 352 353 351 352 351 350 350 348 348 347 347 349 348 347 348 346 346 346 345 346 346 346 348 346 345 346 344 339 338 338 336 336 336 336 336 337 337 337 337 337 336 336 336 336 336 336 337 336 337 337 337 337 337 337 337 337 337 338 338
326 317 324 327 323 327 331 329 332 332 329 329 327 326 330 331 331 327 325 331 335 330 332 342 343 342 347 353 352 350 351 349 348 348 345 345 345 346 347 345 345 347 346 346 346 345 345 344 345 346 345 345 345 342 339 338 337 336 336 336 336 336 336 336 336 336 336 336 336 336 336 336 336 336 335 336 336 336 337 337 337 336 336 336 337 337
323 320 328 328 323 326 330 330 333 331 328 329 330 332 335 333 333 332 332 336 337 335 339 344 343 347 350 351 353 351 349 348 347 346 344 344 345 346 346 344 343 344 346 345 345 345 343 343 343 342 342 341 341 340 339 339 337 337 336 336 336 336 336 336 336 336 336 336 336 336 336 336 335 335 335 335 335 335 336 336 336 335 335 335 336 336
323 321 330 331 319 320 328 330 332 333 329 327 331 337 336 335 333 332 333 337 337 334 339 343 343 349 352 350 352 350 347 348 347 346 347 346 345 346 344 343 343 344 343 343 344 342 341 341 340 339 340 339 339 339 339 338 337 336 336 336 335 335 335 335 336 336 336 336 336 335 335 335 334 334 334 334 334 334 334 335 335 335 335 334 335 335
328 324 329 328 315 315 325 327 328 332 329 327 331 335 334 333 333 332 334 338 336 333 336 338 339 348 352 350 351 350 348 348 347 345 347 345 343 343 342 341 342 342 340 340 340 340 339 339 339 340 340 339 339 339 338 337 336 335 335 335 335 335 335 335 336 335 335 335 334 334 334 333 333 333 332 333 333 333 334 334 334 334 334 334 334 334
332 328 325 322 316 315 323 327 327 324 325 328 334 336 335 337 335 334 337 341 340 338 338 337 341 348 351 350 351 350 347 347 345 344 343 343 341 338 338 338 338 337 337 336 337 338 338 338 339 340 339 338 339 338 336 336 335 334 335 335 334 335 335 335 334 334 334 333 332 332 331 330 330 331 331 331 332 332 332 332 332 333 333 333 333 333
333 330 326 324 317 313 320 328 322 318 322 331 342 340 338 339 336 335 339 341 342 342 340 341 345 348 349 349 349 348 345 344 343 341 339 339 339 337 336 336 335 336 336 336 336 336 337 338 338 338 338 337 337 337 336 336 335 334 334 334 334 334 333 333 332 332 331 330 330 330 329 328 330 330 330 330 330 331 331 331 331 332 331 332 332 332
331 329 329 327 319 314 320 321 316 319 329 339 340 340 337 335 337 340 343 346 345 345 344 345 347 347 346 347 346 344 343 341 339 338 336 335 335 336 335 334 334 335 334 335 337 337 337 337 337 337 337 337 337 336 336 335 334 333 333 332 332 332 331 331 330 329 328 328 328 328 327 328 329 329 329 330 329 330 330 330 330 330 330 331 331 331
331 330 329 325 321 319 316 314 317 327 340 341 338 339 336 337 341 341 344 348 348 346 347 347 346 346 344 343 344 342 341 340 337 336 335 333 333 333 332 332 332 332 333 334 336 336 335 336 335 336 336 336 335 335 334 333 332 332 332 331 330 330 328 328 328 327 326 326 326 326 326 327 328 328 328 328 328 329 329 329 330 329 329 329 329 329
331 331 327 321 322 319 313 315 326 333 334 336 339 340 337 339 341 339 341 346 347 345 346 346 345 345 342 342 343 341 340 339 338 337 335 332 332 331 331 331 330 330 331 332 332 332 333 333 333 333 334 334 333 332 331 330 330 331 329 328 328 327 325 326 327 325 324 324 324 325 326 326 326 327 327 327 327 328 327 328 328 328 328 328 328 328
330 332 330 322 320 320 314 315 325 327 328 334 340 341 338 336 337 339 341 344 347 344 345 347 346 345 344 343 343 342 341 340 339 336 333 331 330 330 330 330 329 329 330 331 331 330 329 331 332 331 332 332 331 329 328 327 328 328 326 326 326 324 323 325 325 323 323 323 322 323 325 325 325 326 326 326 327 326 326 326 327 327 327 327 328 328
330 333 335 325 319 320 315 313 320 327 332 340 342 342 339 336 337 337 336 338 347 346 346 348 347 345 343 343 342 341 341 341 339 336 331 330 329 328 328 329 329 329 329 330 331 328 327 330 330 329 330 329 328 327 325 324 325 324 323 324 324 322 322 324 323 322 322 322 321 323 324 323 324 325 325 325 325 325 325 325 326 326 326 327 327 327
330 330 330 321 316 316 314 314 324 332 338 343 341 338 337 338 337 333 330 335 346 344 343 345 344 342 341 339 338 337 337 338 337 333 329 329 329 329 329 328 328 328 328 330 330 328 327 329 329 328 328 327 327 326 324 323 324 323 323 324 323 322 323 323 322 321 321 321 321 322 322 322 323 324 324 324 324 324 324 325 325 325 325 326 326 325
326 326 324 320 315 314 315 319 327 335 338 339 338 337 337 337 334 332 332 341 346 342 341 341 339 338 337 335 336 335 333 333 331 329 328 328 328 329 329 329 328 328 329 329 329 328 327 328 329 327 326 325 325 325 324 323 324 323 323 324 323 322 323 322 321 321 320 320 321 321 321 322 322 322 323 323 323 323 323 324 324 324 324 324 324 323
325 324 324 325 321 319 321 323 327 333 339 337 336 337 337 337 335 336 341 344 341 338 338 336 336 336 334 333 333 332 331 329 328 328 327 327 328 328 329 329 329 329 329 329 329 327 325 326 327 325 323 323 323 323 323 324 324 323 323 323 322 322 322 321 320 320 320 320 320 320 320 321 321 321 322 322 322 323 323 323 323 324 323 323 322 321
332 324 321 328 330 327 326 327 328 334 341 338 337 341 342 340 340 342 341 339 337 335 335 333 333 333 332 331 330 329 329 329 328 328 327 326 327 328 329 330 330 329 329 328 327 325 324 324 324 323 322 322 322 322 323 323 322 322 322 321 321 321 321 320 320 320 320 320 319 320 320 321 321 321 320 321 322 322 322 322 323 323 322 321 321 319
343 333 327 334 339 332 328 332 337 340 341 339 339 342 342 340 341 340 337 337 335 333 333 332 332 331 330 329 329 328 327 327 327 328 328 327 327 329 329 330 329 328 328 327 325 324 322 321 322 322 321 322 322 322 322 322 321 322 321 320 320 320 319 319 319 319 319 319 319 319 319 320 320 319 320 321 321 321 322 322 322 322 321 320 319 318
343 342 337 340 342 338 336 340 342 340 338 337 338 338 337 337 337 335 334 334 333 332 332 331 330 329 328 327 327 327 326 326 325 326 327 326 327 329 330 329 328 327 326 324 322 322 321 321 322 322 321 321 321 321 322 321 320 321 321 320 319 319 318 318 318 318 318 318 318 318 318 318 318 318 320 321 321 321 321 321 321 321 320 319 318 317
341 342 341 342 341 340 340 339 338 337 336 335 334 334 334 333 333 333 332 332 332 331 330 329 328 328 327 327 327 327 326 326 325 325 326 326 328 329 329 328 327 326 324 322 320 320 320 320 321 322 322 321 321 321 321 320 320 320 320 319 318 317 317 318 317 317 318 317 317 317 318 317 317 318 319 320 319 320 320 320 320 320 319 318 317 316
337 336 341 342 339 338 338 337 337 336 334 334 333 333 332 331 331 332 331 331 330 329 328 328 327 327 327 326 326 327 326 326 325 324 325 327 328 328 327 326 325 324 322 321 321 320 320 320 320 320 320 321 321 321 320 319 320 319 318 318 317 316 317 317 317 317 317 316 316 316 317 316 316 317 318 319 318 318 319 319 319 319 319 317 315 315
336 336 341 342 341 340 339 337 336 334 333 334 333 332 332 331 331 330 330 329 330 328 328 327 326 327 327 326 327 327 326 326 326 325 325 327 328 327 326 324 323 322 321 321 321 320 319 319 319 319 320 320 320 320 319 319 319 319 318 317 317 317 317 317 316 316 316 316 315 316 316 315 316 317 317 318 317 318 319 319 318 318 318 316 314 314
337 338 341 341 341 340 338 337 335 335 335 334 332 332 332 331 330 331 329 329 328 328 328 327 326 327 327 326 327 327 325 325 327 326 325 327 327 326 324 323 322 321 320 320 320 319 319 319 319 319 319 319 319 319 319 319 319 318 318 317 317 317 317 316 316 316 316 315 315 315 315 314 315 316 316 316 316 316 318 318 317 316 316 315 313 313
340 340 340 340 340 339 339 338 336 336 336 335 332 332 331 330 330 330 329 328 327 326 327 326 326 327 326 325 325 325 325 325 326 326 326 326 326 324 323 321 321 320 318 318 318 318 318 318 318 319 319 318 319 319 319 319 318 317 317 317 317 317 316 315 316 316 315 315 316 315 314 314 315 316 316 316 315 315 316 318 317 316 315 314 313 312
341 341 340 340 339 339 338 336 335 336 336 334 332 331 330 329 329 328 328 327 327 326 326 326 325 325 326 325 325 324 325 325 325 325 326 326 324 323 322 320 320 318 318 317 318 318 318 318 318 318 318 318 319 319 318 319 318 316 316 316 316 316 315 315 316 316 314 315 316 315 314 315 315 316 316 315 314 314 315 316 317 317 316 315 314 313
Wind_Speed
6 7 6 8 9 4 8 10 9 9 10 11 9 9 11 5 7 10 10 11 9 4 4 7 6 5 8 14 13 8 7 8 8 8 6 2 3 5 4 3 3 4 4 5 6 5 5 5 4 5 5 7 10 11 10 8 7 5 6 3 3 7 9 5 6 6 4 5 6 7 8 8 8 8 8 8 7 8 10 9 8 6 5 6 7 5
5 7 7 14 11 6 8 9 8 9 11 11 10 9 10 7 6 12 11 11 6 1 4 6 3 4 10 13 14 10 7 8 9 8 7 3 3 5 5 3 2 3 4 4 6 6 7 5 3 3 4 5 6 6 6 5 6 5 4 2 3 9 13 8 3 3 3 3 5 5 7 9 9 8 7 7 6 6 7 6 6 6 5 7 6 4
6 6 10 18 9 9 5 8 8 10 10 9 9 8 6 5 6 10 10 8 5 1 4 6 5 5 12 13 12 10 6 6 6 5 7 6 5 1 3 3 2 1 2 3 6 6 6 5 2 3 3 4 3 5 6 5 6 4 2 2 3 6 10 9 5 1 1 1 4 5 7 8 7 7 7 6 5 6 7 6 5 6 6 6 5 4
6 6 12 13 6 7 6 8 10 10 8 8 7 9 6 5 6 4 8 9 7 3 5 7 6 3 10 11 10 7 8 8 4 2 5 7 7 4 2 1 2 1 1 2 6 5 5 5 4 5 4 3 4 5 6 5 6 6 5 6 6 7 7 8 7 4 3 1 1 2 5 4 5 6 5 4 4 4 6 6 6 6 6 5 5 4
10 9 11 8 7 6 9 9 11 8 8 10 6 8 7 8 9 6 1 7 9 6 8 8 5 4 9 9 9 8 9 10 5 4 4 6 7 5 3 3 0 1 1 2 5 4 4 6 6 6 5 5 6 6 7 8 8 8 8 8 9 10 10 10 10 8 6 4 2 1 4 5 6 4 1 4 6 5 5 6 7 7 5 5 5 4
13 13 12 8 5 7 9 8 10 9 8 8 8 8 8 10 10 9 10 9 6 4 10 9 4 3 9 10 11 9 8 10 7 5 3 2 4 5 3 3 1 0 1 3 4 4 5 6 6 7 7 7 8 7 9 9 8 8 9 9 10 11 11 11 11 10 9 9 8 6 4 3 4 6 8 9 9 7 7 7 7 9 8 7 7 6
9 12 14 11 8 9 10 9 9 9 8 3 8 12 11 10 11 10 12 10 7 6 5 8 3 0 8 9 10 11 9 9 6 4 4 2 2 4 4 2 1 1 2 3 4 4 4 5 6 6 7 8 9 8 9 9 9 10 10 10 11 11 11 11 11 11 11 11 11 11 10 10 10 11 11 10 10 9 10 8 8 10 10 10 9 8
9 13 15 10 7 8 9 10 8 7 9 3 10 13 11 11 12 12 12 9 7 9 5 2 3 3 4 7 11 13 12 8 4 5 5 2 4 5 5 2 2 2 2 3 4 4 4 5 6 7 8 10 10 10 9 10 10 11 11 12 11 11 11 11 11 12 12 12 12 12 12 12 12 12 11 10 10 10 11 10 9 10 10 10 9 8
9 13 15 10 6 6 9 11 7 7 9 6 13 12 11 10 11 10 8 6 6 7 7 4 4 2 3 7 10 14 14 10 7 7 5 4 6 5 6 5 3 2 1 1 3 4 5 6 7 7 10 11 11 10 10 10 10 11 12 12 12 12 12 13 12 13 13 13 13 14 14 13 13 13 12 11 11 11 11 11 10 10 10 10 9 8
10 10 12 13 8 7 13 10 5 6 10 11 13 12 11 10 11 10 6 6 7 6 8 9 5 3 3 7 8 10 12 11 10 9 7 7 6 3 5 5 4 2 1 4 3 4 4 6 8 8 10 11 11 11 11 11 11 12 12 12 13 13 14 15 15 15 15 15 16 16 15 15 15 15 14 13 13 14 13 12 12 12 12 10 9 9
15 8 4 9 9 8 14 10 6 4 10 10 10 10 11 12 10 6 5 6 6 4 9 11 8 6 1 4 5 6 7 12 14 11 10 10 8 6 3 4 5 5 3 5 5 5 6 6 8 9 11 11 11 11 11 12 12 13 13 14 15 15 16 17 17 17 17 17 17 17 17 17 17 16 16 16 16 16 15 14 14 14 13 12 11 10
18 13 4 6 10 11 13 11 7 7 8 7 8 7 7 8 6 5 4 4 4 5 9 9 8 7 3 2 5 6 6 12 16 13 14 14 12 9 5 8 8 6 5 7 4 5 5 7 9 10 12 11 11 11 12 13 13 14 14 15 16 17 17 17 18 18 18 18 18 18 17 17 17 16 16 16 16 16 15 15 15 16 16 15 14 13
14 14 10 9 10 11 13 9 8 11 9 9 8 6 6 6 5 6 5 3 4 7 10 8 8 6 5 4 5 9 6 11 14 12 14 15 14 12 8 9 9 7 7 6 2 3 1 4 9 10 12 12 12 12 13 13 14 14 15 16 17 17 16 16 17 17 17 18 18 18 17 17 16 16 15 15 16 16 15 15 16 16 17 17 16 15
9 11 14 13 8 9 11 9 8 9 7 9 9 5 5 5 6 7 6 5 5 7 9 9 7 3 4 6 9 10 5 9 13 11 13 14 14 14 10 8 8 8 6 3 4 1 3 3 9 12 13 12 13 13 13 14 14 14 15 16 16 16 15 16 16 16 16 17 17 17 17 16 16 16 15 15 16 16 15 16 16 16 16 17 16 16
8 8 11 13 8 9 11 10 10 10 10 10 9 9 7 4 5 7 5 6 7 8 11 10 6 4 3 1 5 6 3 10 14 10 11 12 11 12 11 9 7 6 6 5 2 4 4 7 11 12 13 13 14 14 13 14 14 14 15 15 16 16 15 16 16 16 16 16 17 17 17 17 17 16 16 15 16 16 15 16 16 16 16 17 16 16
8 7 8 15 13 9 12 11 10 10 10 8 7 8 6 6 6 7 7 8 10 8 8 6 3 4 5 4 7 8 6 9 14 13 12 10 8 9 8 6 4 4 5 4 3 5 4 10 12 11 12 13 14 14 13 13 13 13 14 14 15 15 15 16 16 16 16 16 17 17 17 18 18 17 17 17 17 17 16 16 16 15 16 17 16 16
5 7 9 16 12 6 7 9 9 8 6 5 6 6 7 8 7 8 7 8 9 7 5 4 3 5 7 6 11 14 15 15 12 12 12 9 7 7 7 8 8 8 9 6 4 2 7 9 9 11 12 13 14 14 13 13 13 13 13 14 15 15 15 15 15 16 16 15 16 17 18 18 18 18 18 18 19 18 18 18 16 15 16 16 16 17
5 6 5 12 11 10 9 9 7 7 8 7 7 8 11 8 7 6 5 6 7 6 6 6 6 8 7 5 9 11 14 15 14 14 15 15 13 11 11 12 11 10 9 8 9 7 4 6 9 11 13 14 14 13 12 12 12 12 13 12 13 13 14 14 14 15 15 15 15 16 17 18 18 18 18 19 20 20 19 19 17 17 17 17 16 17
7 5 2 4 5 8 10 6 8 9 10 9 10 11 9 6 6 5 4 6 7 6 7 6 9 11 6 4 5 6 8 10 10 9 10 10 7 4 6 8 7 5 4 6 7 5 2 7 11 12 13 13 12 11 10 9 9 10 10 10 10 11 11 12 13 14 15 15 15 15 16 17 18 18 18 19 19 20 20 19 18 19 18 17 17 17
6 4 2 2 3 3 5 3 7 8 11 9 8 7 4 4 6 6 4 5 7 6 8 6 8 7 3 4 4 6 6 7 8 8 9 9 9 8 6 5 6 5 5 7 7 6 7 10 12 11 11 11 10 9 9 8 8 8 8 9 9 9 10 10 12 14 15 15 15 15 15 17 17 17 18 18 18 18 19 19 19 19 19 18 18 18
4 4 3 2 4 4 1 5 9 6 4 6 5 5 4 4 4 6 6 6 6 6 7 6 4 2 3 6 4 7 9 8 8 8 7 7 8 8 8 8 6 5 6 7 5 7 10 11 12 11 11 10 9 9 9 9 9 9 9 9 9 9 10 10 11 13 14 15 15 15 16 17 17 17 18 18 18 17 17 18 19 19 19 19 18 19
3 4 4 3 5 4 3 5 6 6 6 2 4 5 6 5 4 6 6 6 6 7 8 5 2 0 4 5 4 6 8 7 8 8 6 7 5 3 3 4 3 1 4 5 1 8 10 11 13 11 10 9 9 10 10 9 9 9 8 7 6 7 9 11 11 12 14 16 15 15 16 17 18 18 18 18 18 17 17 17 18 18 19 19 18 18
4 4 4 6 5 3 3 7 6 7 8 7 6 7 7 5 4 5 5 7 7 7 9 6 4 0 4 4 5 8 9 7 7 7 8 9 6 4 5 5 3 2 5 3 6 9 11 12 12 11 11 11 10 10 9 8 9 9 9 8 7 8 10 11 11 13 15 16 15 15 16 17 18 18 19 19 19 18 17 18 18 18 18 19 19 19
4 3 5 7 3 3 2 4 4 4 6 7 7 7 6 5 5 6 7 7 6 7 8 5 5 2 2 4 6 8 10 8 7 8 10 9 6 6 6 4 3 3 3 4 7 9 12 13 11 10 11 10 9 8 8 8 8 9 11 11 10 10 11 12 12 14 16 16 15 16 16 17 18 18 19 20 19 19 19 19 19 18 18 18 19 19
4 3 3 6 5 4 5 5 4 4 5 6 6 5 5 7 8 8 8 6 6 10 10 5 3 3 2 4 6 7 10 10 9 9 9 8 7 6 5 5 4 4 5 7 8 8 10 10 7 6 8 8 8 8 7 8 7 7 9 11 10 11 11 12 13 14 15 15 16 16 16 17 18 18 19 20 19 19 19 19 19 19 19 19 19 20
4 5 4 4 7 4 2 2 2 2 4 5 7 8 8 10 10 9 8 5 5 9 11 6 3 5 5 5 6 6 7 10 10 9 8 7 7 6 6 5 5 6 8 8 8 7 7 8 7 6 5 5 7 7 5 6 7 7 8 10 10 11 12 12 13 14 14 15 16 16 17 17 17 18 19 19 18 19 19 19 19 20 20 20 20 20
4 5 3 3 6 5 3 3 3 3 5 7 8 8 8 8 9 8 7 6 4 3 5 5 4 6 6 4 6 6 6 8 8 8 8 7 7 7 6 6 6 7 7 7 7 5 5 6 5 2 1 3 5 5 4 6 6 6 7 9 10 12 12 12 13 14 15 15 15 16 16 17 17 17 18 18 18 19 19 19 20 20 20 20 20 20
5 5 4 3 5 8 8 6 6 5 7 8 9 10 9 8 9 8 6 8 9 4 3 5 5 4 4 5 6 5 5 6 5 5 6 6 7 7 6 6 6 6 7 6 5 4 5 4 3 2 1 1 3 4 5 6 6 7 9 10 11 12 13 13 14 15 15 15 15 16 16 16 17 17 17 18 18 19 19 19 20 21 21 20 20 20
5 7 6 4 4 9 8 6 7 7 7 8 8 9 8 8 11 11 8 10 11 6 5 5 5 4 4 6 7 6 6 6 4 4 5 6 7 7 6 5 5 6 6 5 3 4 4 2 3 4 3 1 1 4 6 7 8 9 9 10 10 12 12 13 14 14 15 15 15 15 16 16 17 17 18 19 19 19 19 19 20 21 21 21 21 20
5 5 6 4 4 8 8 6 6 7 9 9 7 7 7 6 10 13 11 10 10 7 6 6 6 6 6 7 8 6 5 6 5 5 6 5 5 7 5 3 5 6 4 3 3 3 4 4 4 5 4 3 5 6 8 8 8 8 9 9 11 11 12 13 13 13 14 15 15 16 16 16 17 17 18 19 19 19 20 20 20 21 21 22 21 21
4 3 4 5 6 8 9 8 7 8 11 7 7 8 8 8 10 12 11 10 9 5 4 6 6 6 6 6 8 6 4 4 4 4 4 3 5 9 8 6 7 6 5 5 3 2 5 5 5 5 6 6 6 6 6 6 7 8 9 10 11 12 13 13 13 13 14 14 15 16 16 16 17 18 18 19 19 19 20 20 21 20 21 21 21 21
4 4 3 4 7 7 7 9 9 9 9 4 12 10 7 8 9 10 9 10 9 7 7 8 6 4 5 6 6 6 4 4 3 3 3 4 5 9 8 7 7 7 7 8 5 4 5 6 6 6 6 6 6 5 6 7 8 9 10 11 12 13 13 13 13 13 13 14 15 16 17 17 18 19 19 20 20 20 21 21 21 21 21 20 20 20
3 4 3 3 4 5 7 10 10 9 6 3 7 6 6 5 5 7 7 11 10 8 7 7 5 3 3 4 5 4 4 5 5 4 3 3 5 7 7 6 6 7 7 7 6 6 6 5 6 6 5 6 6 6 7 9 9 10 10 11 12 12 12 12 13 13 13 14 15 16 17 18 19 19 19 20 21 21 21 21 21 21 21 21 21 20
4 6 4 3 3 7 10 11 10 7 3 1 3 4 5 4 4 5 9 11 10 9 9 8 6 3 3 5 5 4 5 6 5 5 5 5 5 7 7 7 8 9 8 7 7 6 5 5 6 6 6 7 7 8 8 9 9 9 10 10 10 11 12 12 12 13 14 15 15 16 17 18 18 19 19 20 21 22 22 22 21 21 21 21 21 21
5 5 3 4 5 6 8 9 9 5 1 3 4 2 5 5 5 10 14 14 11 10 11 11 7 4 5 7 6 5 6 6 5 6 7 6 5 6 7 8 8 8 7 7 6 5 6 7 7 7 7 8 8 9 9 9 10 9 9 10 11 11 12 12 12 13 14 15 15 16 17 18 18 19 20 21 22 21 21 22 22 22 22 21 21 21
5 5 3 4 5 5 6 7 6 1 5 6 4 1 3 5 5 8 11 12 9 8 10 10 6 4 5 6 6 5 5 5 5 6 5 6 8 7 7 8 7 7 8 8 7 6 7 7 7 7 8 9 9 10 10 10 11 10 10 11 11 11 12 12 12 14 15 15 16 17 18 18 19 19 20 21 21 21 21 22 22 22 23 23 22 21
4 5 5 4 4 5 7 4 2 6 7 4 1 2 4 4 2 4 7 7 7 7 8 7 5 5 4 4 7 7 4 2 3 4 5 8 9 9 9 9 9 9 10 10 9 8 8 7 8 8 8 9 10 11 12 12 11 11 11 11 11 12 13 12 13 15 16 16 16 18 18 18 18 20 20 21 20 21 22 22 22 21 22 22 22 21
4 5 5 5 4 5 7 3 4 5 3 1 0 2 3 5 3 7 8 6 5 7 9 7 3 2 1 2 7 9 3 0 2 3 4 6 7 7 8 9 10 11 11 11 10 10 9 9 9 9 9 10 11 12 12 13 12 11 11 11 11 13 14 14 14 16 16 16 18 18 17 17 18 19 20 20 19 20 21 22 22 22 21 20 20 19
8 6 5 6 5 5 8 6 1 2 2 0 2 2 1 4 4 1 5 3 2 3 6 9 7 4 3 2 5 6 2 0 2 2 3 5 7 7 8 10 12 12 11 11 11 11 11 10 10 9 9 10 10 11 12 12 12 11 12 12 12 14 15 14 15 16 16 17 18 17 17 17 18 19 19 19 18 19 20 21 21 22 21 19 18 19
7 6 6 6 6 7 7 3 2 4 4 1 2 2 3 3 5 7 4 1 1 4 4 5 5 4 3 3 4 3 3 3 2 3 5 6 8 10 11 11 12 11 11 12 13 12 11 10 11 11 9 9 9 10 11 12 11 11 12 12 13 15 15 15 16 16 16 18 17 17 17 17 17 19 19 18 18 19 20 20 21 21 21 19 18 18
3 3 4 5 6 7 4 2 5 5 4 5 4 5 6 5 6 4 2 2 3 2 5 6 7 7 6 5 5 4 5 5 4 6 8 8 8 10 11 11 11 11 11 11 12 12 11 10 11 11 11 12 12 12 13 12 11 12 13 13 14 15 15 15 17 17 17 18 17 16 17 16 17 18 18 17 19 20 20 20 20 20 20 19 18 19
3 3 2 3 5 4 3 6 5 4 4 6 4 5 7 6 3 2 4 5 5 6 8 8 7 6 5 5 5 4 4 4 5 7 8 8 8 8 10 11 11 11 11 11 11 12 12 10 11 12 12 13 13 13 13 12 12 13 13 14 15 15 15 15 16 16 17 18 16 16 16 16 16 17 17 17 19 20 19 19 19 19 19 18 18 19
3 3 3 5 6 4 5 5 3 3 5 7 5 4 6 4 4 6 6 7 8 8 8 7 7 6 5 5 5 4 4 4 5 5 6 7 7 7 9 10 10 10 10 10 11 13 12 11 12 12 12 12 12 13 12 12 13 13 14 14 15 14 14 16 16 15 16 17 16 16 16 15 15 16 16 17 19 18 18 19 19 18 19 18 18 18
4 3 2 4 4 3 3 4 3 3 6 8 6 5 7 7 7 6 6 7 7 6 5 6 5 5 6 7 5 4 5 5 5 5 5 5 7 8 10 10 9 10 10 11 12 13 12 11 11 11 11 12 12 12 12 13 14 14 14 15 15 14 15 16 16 16 17 16 16 16 15 14 15 15 15 17 18 17 18 19 18 17 18 18 18 17
5 5 6 6 5 5 5 5 5 5 6 9 9 9 10 10 9 8 9 8 6 6 6 5 5 5 6 7 7 5 6 6 6 6 7 6 7 11 10 8 7 9 10 11 12 12 12 11 11 11 12 12 12 12 12 13 13 13 14 15 15 13 15 17 17 17 16 15 16 17 15 14 16 15 13 15 17 17 18 18 17 16 17 18 17 16
6 8 9 8 7 9 9 8 8 9 10 11 11 11 12 12 11 11 11 9 8 7 6 5 5 6 7 7 7 6 7 7 7 7 7 7 8 9 7 5 7 8 8 7 9 11 13 12 11 11 12 12 12 12 13 13 13 12 13 15 15 14 16 17 18 18 17 15 16 17 16 17 17 15 13 15 16 16 16 17 16 16 16 17 16 16
4 3 6 6 6 6 7 8 9 11 11 11 11 11 12 12 11 10 9 8 8 7 7 6 5 5 7 8 7 6 7 8 8 8 7 8 7 6 5 7 9 7 5 4 8 13 13 12 12 12 12 11 12 12 13 13 12 12 14 15 16 16 17 16 16 18 18 17 16 16 17 18 18 14 13 14 14 14 14 15 15 14 14 15 15 14
3 3 3 6 5 6 8 10 11 11 11 10 9 9 9 10 10 10 9 8 8 7 7 7 6 6 7 7 5 4 6 8 7 7 7 7 6 5 6 8 8 6 6 5 10 15 14 11 11 12 11 11 11 12 13 13 13 12 13 15 16 17 17 16 16 16 17 17 16 15 17 17 17 15 15 14 15 14 12 11 12 11 12 13 12 11
2 1 4 8 8 8 9 11 11 10 10 10 9 9 8 8 9 9 8 8 8 6 5 6 6 7 7 5 4 4 5 6 7 7 6 5 4 5 7 6 4 6 6 5 11 14 13 10 10 11 11 11 11 12 13 14 12 11 12 15 16 16 16 17 17 16 16 16 15 16 16 16 15 16 16 15 16 16 13 10 10 9 10 10 11 10
4 3 4 6 6 6 7 8 6 5 6 8 8 9 8 7 8 8 6 6 8 6 5 5 6 6 7 6 6 5 5 5 7 7 6 4 3 5 7 6 4 5 6 6 9 11 10 9 9 10 10 11 11 13 14 14 12 12 13 14 15 15 14 16 17 16 16 16 15 16 16 16 15 16 16 16 17 17 15 12 9 8 10 11 10 10
6 5 3 3 5 7 8 7 5 5 7 8 7 7 7 6 6 7 6 6 8 7 6 6 6 6 5 4 4 5 6 6 7 8 6 4 2 5 6 6 6 7 9 8 8 10 10 9 8 9 10 11 12 13 14 15 13 13 14 15 15 14 14 15 16 16 15 14 14 15 16 15 15 15 15 17 17 16 15 14 10 9 11 13 11 10
Wind_Direction
228 259 266 263 259 289 356 355 347 338 317 308 305 281 286 300 119 120 127 142 168 188 116 112 126 141 131 138 158 177 159 125 101 98 107 287 344 23 348 352 21 20 54 69 62 66 58 45 46 52 77 113 129 148 158 166 156 169 213 209 142 130 126 158 218 220 215 243 257 266 278 282 294 299 281 263 261 263 261 261 264 254 256 281 275 251
227 258 272 265 276 17 2 324 317 307 303 297 289 283 295 317 64 88 103 133 160 213 133 145 196 158 130 143 156 169 175 136 119 124 133 137 37 13 329 339 16 18 31 63 67 77 82 69 61 54 37 60 96 124 129 145 143 156 199 185 140 136 132 135 181 241 226 234 254 261 284 298 306 309 295 279 285 283 278 287 294 304 309 306 305 288
238 246 257 257 284 27 344 292 289 285 291 294 290 285 294 344 42 83 99 124 142 170 158 175 244 193 147 151 158 167 168 115 113 137 136 126 107 153 279 327 327 23 23 69 83 82 90 96 106 101 65 41 80 105 97 115 128 120 100 56 57 107 122 123 127 206 222 242 275 281 289 305 309 299 292 290 294 295 304 310 297 303 301 290 304 309
240 238 259 274 345 13 308 282 271 267 265 263 270 279 292 14 20 76 124 149 173 195 154 175 245 191 135 145 149 141 122 97 65 84 116 117 128 169 174 90 269 144 112 83 89 97 113 119 120 107 101 91 79 72 73 79 86 82 66 56 47 54 75 84 82 87 100 131 247 281 281 279 260 255 262 287 318 327 323 322 313 309 301 300 314 306
258 255 260 304 6 316 294 290 276 278 271 268 271 272 298 359 355 347 224 188 189 181 156 185 236 129 131 149 133 103 103 109 84 62 74 88 122 149 117 103 45 70 143 112 103 130 130 118 119 114 116 108 88 68 61 56 56 61 55 54 54 48 47 48 45 46 53 59 91 175 227 217 227 246 354 3 12 17 355 347 344 336 326 325 324 313
257 267 265 280 317 285 282 273 272 288 282 295 345 351 355 350 333 328 305 281 255 213 164 184 268 115 148 158 138 123 123 126 114 104 94 55 132 140 105 93 85 45 142 120 124 144 130 123 125 121 118 104 91 76 67 61 58 61 57 54 55 50 44 41 38 35 33 33 35 33 29 23 5 27 41 27 22 20 5 358 349 344 343 341 333 327
255 261 261 273 302 296 287 275 273 292 279 290 12 2 360 330 310 310 301 297 305 306 179 175 283 74 157 163 154 144 138 135 126 140 161 250 202 137 102 101 147 134 103 117 130 138 137 132 123 114 108 101 95 84 77 75 68 64 62 58 53 50 45 41 41 38 34 32 28 27 30 26 21 27 31 27 25 16 7 3 350 347 350 348 340 334
247 250 251 256 274 277 276 271 278 303 285 316 31 2 336 319 313 317 316 311 303 301 280 178 22 27 140 154 158 142 131 135 159 192 170 238 238 154 123 138 143 93 104 147 145 145 154 134 119 112 102 97 95 89 81 76 70 66 63 61 56 52 50 47 47 45 40 37 32 30 32 30 28 26 22 26 27 18 9 4 357 353 352 349 343 340
234 243 255 244 230 258 256 257 291 329 289 322 19 352 321 317 308 301 300 294 298 313 311 328 15 16 136 140 153 140 135 149 187 206 184 229 238 159 126 128 98 55 352 232 167 157 155 133 120 110 100 95 92 87 83 78 74 71 65 64 61 52 51 50 49 49 46 42 39 36 34 32 30 26 22 24 24 20 13 7 5 2 360 355 349 345
239 228 250 246 226 244 256 265 359 348 295 323 348 324 300 284 266 265 282 309 337 347 314 303 302 259 164 142 161 160 157 161 176 200 199 208 211 140 108 115 117 115 343 292 219 150 136 127 119 109 100 95 92 88 86 82 75 71 67 64 61 55 53 51 48 49 46 43 41 38 36 32 28 24 21 20 20 18 13 10 8 2 358 356 355 354
257 258 278 271 262 258 267 294 3 319 288 307 308 294 289 277 265 278 311 320 323 309 298 302 298 287 235 148 175 180 168 155 160 182 192 188 168 134 114 151 175 151 119 274 242 137 126 122 111 104 98 91 93 91 85 81 75 72 69 65 63 58 55 53 49 49 46 43 40 37 35 32 27 23 21 19 16 13 11 8 4 358 355 353 352 352
249 257 259 256 262 275 281 294 310 277 265 272 275 279 289 287 289 297 268 258 291 297 293 301 311 320 351 167 178 157 152 155 159 169 177 177 156 142 178 187 177 145 149 229 227 123 131 131 115 105 99 91 88 86 82 80 76 73 69 67 65 59 56 54 50 48 45 42 39 35 33 30 26 23 22 19 13 9 8 4 360 358 357 357 355 355
234 244 245 232 229 251 268 273 266 257 242 237 249 258 275 287 292 287 272 269 304 288 287 322 351 360 49 56 105 124 152 163 158 161 166 167 150 149 190 187 160 151 174 202 126 81 202 143 118 103 94 90 86 82 81 81 77 74 71 68 66 60 55 53 50 48 46 43 39 34 31 27 23 21 20 18 11 6 5 2 360 358 358 358 357 356
219 227 238 245 229 209 234 255 254 259 262 251 255 264 273 291 301 294 297 310 312 289 306 355 9 18 77 50 70 103 146 146 143 156 156 155 151 151 171 178 160 158 158 119 67 57 249 148 109 97 93 90 87 83 79 78 77 75 72 68 67 63 58 54 51 49 46 42 38 34 31 26 21 19 17 14 9 4 2 360 357 357 357 356 354 353
231 227 210 226 235 188 202 238 258 280 290 277 292 311 300 312 318 309 319 327 325 318 327 346 351 11 66 61 60 83 134 130 137 152 142 145 153 147 156 169 165 150 121 89 94 226 205 114 97 94 95 91 88 85 81 79 76 75 72 68 66 62 57 54 49 46 42 39 34 29 27 22 17 15 12 10 6 1 358 356 353 353 355 353 350 349
239 258 200 204 224 201 191 213 236 261 274 277 292 296 317 356 331 315 335 328 318 316 324 343 25 70 96 95 39 30 35 90 123 133 122 131 142 134 140 144 135 113 86 87 186 206 122 92 91 96 95 91 88 84 82 80 76 74 71 65 63 59 55 51 46 41 38 34 30 24 21 18 13 10 7 3 0 356 354 352 348 349 351 348 346 346
228 257 213 190 197 205 214 229 224 230 262 290 274 282 357 354 304 303 327 316 307 308 319 346 43 95 99 59 25 30 40 51 73 83 72 60 52 53 48 36 27 27 27 3 312 6 71 84 94 97 94 91 87 82 79 78 75 73 69 63 60 55 51 47 42 38 33 28 25 20 16 13 9 6 3 358 354 351 350 347 345 348 346 343 344 344
293 279 220 172 177 193 218 263 269 260 288 295 277 316 354 340 297 307 316 306 311 313 315 339 25 60 71 30 8 34 58 60 53 50 46 37 25 16 16 22 21 18 10 336 320 340 34 98 100 95 94 92 89 87 85 83 79 73 68 63 58 54 49 44 38 34 27 21 18 13 10 8 4 0 358 355 351 349 346 344 345 346 343 341 342 341
294 283 236 171 212 197 187 243 274 256 261 275 292 318 337 320 302 310 314 318 317 306 302 339 48 57 44 31 32 41 68 85 84 80 84 83 77 52 23 34 47 38 349 301 282 263 185 113 97 95 96 94 93 94 90 88 84 78 74 67 59 55 50 43 35 29 21 15 11 7 5 3 360 356 354 352 349 347 344 343 345 343 340 340 339 338
273 253 197 154 256 225 155 209 261 238 211 226 281 301 299 301 309 315 321 309 301 298 302 337 55 64 5 356 46 80 107 130 134 129 126 132 140 144 151 153 145 160 204 241 233 183 132 106 99 96 90 86 84 81 72 63 58 57 63 62 52 44 39 37 34 25 16 9 3 0 1 359 356 354 351 348 346 344 342 342 343 341 339 337 336 337
283 248 187 166 230 245 195 211 243 269 188 190 246 274 276 296 316 317 308 297 305 312 311 336 37 53 344 339 6 94 123 153 151 142 141 144 153 160 164 164 160 172 204 234 215 129 108 102 98 87 79 75 70 65 58 46 38 30 28 32 32 28 22 22 26 21 12 4 356 355 358 355 352 350 347 344 343 341 340 340 339 337 336 335 335 336
254 245 211 206 212 217 280 252 252 332 11 350 288 306 307 304 312 307 297 310 326 314 312 343 75 308 340 339 355 76 107 135 139 139 130 114 122 132 99 89 73 332 277 272 130 99 93 94 92 84 78 71 60 53 47 37 30 22 16 14 19 26 21 13 13 14 9 358 350 351 353 349 346 344 342 341 341 341 339 338 336 335 334 333 334 334
241 275 261 236 208 187 308 327 349 357 345 323 297 292 293 297 310 310 313 330 331 311 317 357 92 83 332 5 39 63 82 98 108 112 106 103 109 95 75 73 62 347 308 334 60 70 73 77 76 70 62 54 48 46 41 29 18 9 3 360 4 17 23 16 10 11 5 351 345 348 347 343 341 339 337 337 338 339 339 337 335 334 333 333 333 332
239 260 278 269 236 154 204 286 308 301 297 292 275 271 288 316 329 324 326 330 322 322 335 19 92 97 339 31 65 88 98 98 99 103 106 109 111 100 89 87 66 19 5 61 68 67 70 66 60 57 50 37 32 35 35 25 13 4 360 359 3 9 14 14 8 5 358 344 341 346 343 339 337 334 334 335 335 337 337 336 335 333 333 333 332 330
225 216 250 282 268 190 197 240 264 297 306 287 285 318 342 333 329 324 325 328 328 348 11 41 83 93 83 66 80 98 103 103 103 104 109 113 114 113 104 100 88 62 64 77 73 70 73 69 56 48 40 23 12 15 28 23 9 9 8 6 10 8 4 3 358 355 350 340 339 342 339 335 334 333 333 332 332 334 334 334 334 333 333 332 331 329
219 214 191 240 267 260 243 265 263 309 314 282 298 335 337 327 336 333 328 339 348 9 34 49 77 105 115 106 94 85 85 96 102 104 109 109 109 113 109 104 91 74 71 75 71 64 68 73 64 41 29 21 1 351 20 33 19 19 16 9 9 5 358 354 350 347 343 337 337 338 335 333 332 333 332 331 331 332 332 332 331 331 331 330 330 328
250 241 204 222 278 299 312 305 282 267 270 269 290 315 318 330 346 334 324 344 340 359 60 58 72 111 120 99 80 70 74 87 96 103 106 109 113 112 105 100 87 77 76 76 75 70 66 75 83 75 31 31 2 344 19 41 25 17 14 7 2 358 356 352 345 341 337 334 334 333 332 333 332 330 330 330 330 330 330 330 329 329 328 328 328 327
277 265 249 222 254 271 271 286 304 294 284 292 308 320 328 339 340 330 340 8 2 351 75 59 55 90 102 92 91 91 86 79 83 99 107 115 119 116 117 117 104 92 88 84 80 75 67 70 100 130 124 34 5 358 23 32 16 10 12 6 357 353 352 346 339 336 333 332 334 333 333 333 330 329 330 331 330 330 330 329 328 327 326 326 326 325
275 271 271 245 240 266 272 285 303 300 296 300 302 308 323 339 342 345 357 14 23 47 104 89 82 101 109 110 107 105 113 117 136 150 135 135 134 125 127 125 109 99 96 96 95 86 85 94 118 124 127 113 31 23 28 26 16 12 10 3 353 347 344 339 336 334 332 334 336 336 335 333 330 330 331 331 331 330 330 329 328 327 325 324 324 324
249 278 300 302 279 279 281 276 280 285 285 291 305 315 330 356 2 3 2 6 29 69 109 105 102 96 86 96 99 97 113 130 151 158 137 137 128 114 117 110 104 114 121 120 118 103 104 109 111 116 108 71 46 37 33 24 12 9 4 355 347 343 340 339 338 336 336 338 340 339 338 336 335 336 334 332 331 330 330 329 329 328 326 325 324 324
206 277 327 321 288 281 284 276 268 266 270 296 21 14 350 360 2 354 356 8 20 23 40 64 82 79 77 97 109 109 115 122 136 140 122 96 87 108 131 142 126 129 129 118 117 98 90 83 72 75 68 55 50 43 32 14 4 2 357 349 345 343 341 341 341 340 341 344 345 345 345 343 341 340 337 336 334 332 331 331 331 331 329 328 327 325
180 252 286 288 274 274 283 283 280 272 271 357 51 41 16 15 354 330 351 23 20 354 4 34 51 66 92 108 101 101 117 113 86 73 95 115 110 113 125 131 124 121 110 105 103 79 67 59 55 59 50 45 49 37 18 12 7 360 353 348 344 343 344 345 346 347 348 350 350 350 350 347 344 341 339 338 336 334 334 334 334 334 331 330 328 326
199 254 255 264 273 281 285 284 285 284 281 10 45 32 31 30 332 320 13 37 31 20 28 45 51 60 102 103 86 92 112 98 72 50 64 92 95 86 78 74 83 84 79 80 77 64 59 55 57 63 54 43 38 23 16 17 10 358 351 348 345 347 352 353 352 354 354 353 352 352 350 347 344 341 339 339 338 337 337 337 337 336 333 330 329 327
233 261 288 310 294 289 291 289 285 286 294 34 42 10 358 348 328 12 47 51 45 50 65 76 81 83 79 79 82 93 92 83 81 85 73 54 63 80 75 62 65 68 65 64 60 53 58 63 57 50 46 39 31 24 23 18 7 358 353 351 353 358 1 358 357 358 356 353 352 352 349 346 343 340 338 339 341 341 341 341 340 339 337 334 332 331
242 247 266 276 272 283 290 287 283 279 159 104 91 12 319 333 44 67 66 61 54 64 82 86 82 67 64 79 94 99 92 84 68 65 61 44 50 80 86 77 75 76 74 74 73 58 50 52 52 46 39 35 32 27 24 16 4 358 358 360 3 7 4 360 360 359 356 353 353 352 348 345 341 339 339 340 342 343 343 344 343 342 341 339 337 335
268 271 257 248 265 279 277 283 291 202 130 131 132 159 318 348 47 74 72 68 64 71 85 92 93 80 73 93 106 90 84 97 83 59 52 44 37 42 55 58 54 53 61 73 82 80 65 51 48 52 44 38 36 30 22 14 2 359 6 7 6 7 3 360 2 1 357 355 353 350 347 344 341 341 342 342 343 344 345 345 344 343 345 344 342 340
264 280 280 264 264 269 275 295 102 130 136 134 102 33 19 3 26 95 87 78 83 91 91 88 84 84 90 114 113 93 73 86 86 55 47 49 41 30 29 31 30 33 43 50 49 56 66 54 41 49 52 43 39 33 21 9 2 5 8 5 5 7 3 1 4 1 355 354 351 347 345 344 342 343 344 343 345 348 348 346 344 344 346 346 345 344
256 259 279 283 275 269 278 281 142 142 128 94 352 360 354 341 22 108 110 90 87 112 119 115 96 93 152 148 115 111 119 291 60 47 30 36 41 36 25 20 25 27 33 42 31 21 35 42 30 41 60 53 40 34 22 8 5 10 8 3 6 7 2 0 1 358 352 350 348 346 344 343 344 345 344 344 348 351 349 347 347 347 347 346 346 348
265 248 246 262 271 273 278 281 228 109 76 148 240 246 315 330 336 136 148 124 60 71 116 137 152 163 183 165 109 114 136 91 90 81 26 14 19 29 30 25 24 20 24 42 33 8 15 36 25 25 59 67 47 34 25 13 10 13 8 4 6 7 4 357 354 354 352 346 344 345 344 344 344 345 344 345 350 351 348 347 347 349 352 353 353 355
257 244 234 243 251 252 258 281 67 97 96 74 288 340 22 343 294 277 265 140 64 7 45 106 120 100 84 85 88 78 50 63 73 30 30 28 15 19 32 32 23 16 22 36 30 8 11 40 31 10 27 55 51 42 33 18 12 13 6 360 3 6 1 350 348 353 351 345 343 345 345 345 345 344 342 346 350 349 347 348 349 353 360 1 0 3
256 253 247 249 258 253 236 99 90 101 62 11 5 21 4 305 262 278 327 120 144 96 72 79 75 66 55 50 67 70 55 59 43 12 25 42 30 21 30 28 18 20 27 30 28 12 7 34 39 12 8 24 31 38 34 17 10 11 1 357 5 4 354 347 350 353 350 345 344 345 345 345 347 345 343 347 352 349 348 351 354 360 7 8 8 13
325 317 329 337 322 323 43 71 88 101 31 340 339 28 4 312 268 87 102 138 128 92 81 75 68 73 70 61 72 76 48 46 47 23 18 33 39 31 30 27 20 21 23 25 29 17 4 22 37 20 10 17 23 28 24 10 7 8 359 1 6 357 348 350 352 351 348 344 343 347 347 346 349 349 345 348 352 349 350 355 359 7 14 15 16 15
3 319 7 20 354 358 54 60 72 84 27 347 331 23 25 22 98 109 123 128 107 92 86 70 47 38 40 46 57 54 32 38 68 56 21 22 39 39 31 28 23 19 20 25 27 16 7 22 35 24 15 18 22 23 15 7 7 3 0 5 1 350 351 355 352 351 350 343 344 351 348 346 353 353 347 348 351 350 354 0 4 11 18 22 20 14
20 333 22 42 2 346 46 63 69 67 42 32 41 67 69 78 104 115 109 100 93 87 88 86 72 48 29 14 10 36 45 30 41 63 48 26 39 48 41 32 23 17 23 32 26 14 13 25 33 29 22 20 22 20 12 9 6 1 5 4 352 350 360 355 350 354 348 341 346 350 347 352 357 352 348 352 352 354 2 5 5 14 23 24 20 14
56 62 77 71 51 53 74 90 91 82 72 72 78 87 85 81 83 86 84 83 77 66 67 75 74 62 43 15 5 27 42 20 16 45 51 30 39 54 50 37 31 27 29 36 32 21 19 23 26 28 25 21 20 15 12 12 6 3 7 356 342 355 6 356 352 351 341 343 352 347 350 4 357 344 351 360 357 1 8 6 5 15 24 21 16 13
108 115 105 97 95 87 81 87 93 86 80 80 79 80 80 75 71 72 74 71 65 61 64 63 54 51 46 30 22 28 34 25 17 28 40 38 43 54 50 37 46 43 26 32 50 43 29 19 18 23 24 20 16 13 14 12 4 5 5 346 339 1 9 359 353 343 337 352 357 348 360 8 348 340 2 7 360 4 9 7 8 16 21 18 15 15
98 115 105 113 134 121 97 97 99 91 85 86 83 82 82 80 76 76 78 75 69 62 56 48 45 56 55 42 31 23 30 34 21 11 34 53 48 38 30 33 44 40 358 6 63 61 41 19 10 15 18 16 14 13 10 4 359 3 360 347 348 360 359 354 352 344 343 354 355 356 9 359 338 346 10 4 358 5 5 7 12 17 21 20 16 15
10 332 52 78 96 105 106 106 99 90 87 88 86 85 86 87 86 86 86 81 73 66 56 43 31 42 58 53 37 24 32 40 29 11 27 55 53 32 33 37 30 357 326 1 54 55 42 21 7 8 14 12 8 8 5 358 355 358 358 355 355 353 349 351 354 349 347 347 349 5 10 349 338 358 7 357 0 7 3 7 19 22 25 24 17 14
312 251 91 91 97 105 116 117 109 100 93 85 83 85 85 87 90 87 87 89 81 63 52 58 56 55 57 43 22 33 44 45 39 29 31 47 52 34 34 35 5 328 331 36 60 52 40 25 9 7 11 6 3 7 2 351 351 2 6 1 353 345 348 354 351 346 347 347 353 9 3 344 346 1 360 357 5 4 356 359 11 18 21 17 13 11
10 81 112 135 141 130 127 125 116 112 109 100 98 99 98 99 95 78 60 68 77 61 36 43 55 57 58 41 12 18 51 52 39 38 38 33 47 48 33 11 339 332 346 26 51 45 35 27 16 11 8 358 360 9 357 342 350 12 13 360 348 343 352 357 350 346 349 351 1 8 356 345 353 360 360 7 8 359 349 343 341 355 5 2 1 2
30 34 53 133 135 121 123 123 104 90 102 105 102 98 92 86 91 90 69 49 58 58 42 41 38 27 40 48 16 22 52 51 35 37 30 347 10 63 41 351 348 9 360 358 29 43 39 31 21 15 8 356 357 6 355 340 351 13 10 357 349 353 5 5 353 347 348 358 13 8 349 345 359 4 6 11 5 350 342 338 334 341 349 349 352 354